Weather in Gilgit

Pakistan     35°55′00″N   74°18′00″E
temp.,
°C
wind,
m/s
gust,
m/s
humid.,
%
clouds,
%
prec.,
mm/h
press.,
hPa
HPBL,
m
16 april, fri
fri1623:00+3ne1185100 1.9 1019317
02:00+3se1286100 0.1 1019342
05:00+3se1184100 0.3 1019304
08:00+3n0077100 0.0 1020405
11:00+5n1160100 0.1 1018783
14:00+7n1148100 0.3 10161147
17:00+6nnw1153100 0.6 1015904
20:00+6w1160100 0.3 1016330
17 april, sat
sat1723:00+4nw2271100 0.8 1016251
02:00+4wnw1177100 0.5 1014201
05:00+2nw1297100 3.9 1015275
08:00+2nw3490100 3.9 1017331
11:00+3w2380100 6.2 1017494
14:00+3wnw2279100 1.4 1016461
17:00+2nw1286100 4.3 1017311
20:00+2w1286100 0.8 1018314
18 april, sun
sun1823:00+1wnw1195100 3.1 1018160
02:00+1nw0193100 1.3 1017154
05:000w108992 1.9 1019226
08:00+1nne118794 0.2 1020278
11:00+4ese127953 0.4 1017635
14:00+6n126296 0.3 1013953
17:00+7nne0158100 0.9 1011888
20:00+4wnw1273100 1.6 1015281
19 april, mon
mon1923:00+3wnw3381100 4.6 1015348
02:00+1wnw3487100 5.8 1016299
05:00+1wsw1180100 6.8 1017123
08:00+2wsw116699 0.0 1019451
11:00+4wsw115973 0.1 1019995
14:00+6nw115114 0.0 10171215
17:00+6nw11462 0.0 10161149
20:00+3wnw23541 0.0 1019101
20 april, tue
tue2023:00+1wnw23542 0.0 1021116
02:000wnw345512 0.0 1021120
05:00−1wnw235771 0.0 1022109
08:00+1nw2346100 0.0 1022471
11:00+4nnw1144100 0.0 1020889
14:00+6nnw1143100 0.0 10161054
17:00+7n1140100 0.1 1014932
20:00+5nw2346100 0.0 1016167